Showing default

FLOCK 4Q 16, 58271

Orbit data source: Space-Track

FLOCK 4Q 16, 58271 is a payload satellite owned by Planet (US) in SSO that was launched on Sat, 11 Nov 2023 UTC via an FALCON 9 launch vehicle from the Air Force Western Test Range (AFWTR). Payload-class satellites include a variety of spacecraft equipped with specific instruments for various scientific and technological missions. These include communications satellites like Starlink; space stations such as the ISS; scientific satellites like the Hubble; Earth observation satellites from companies like Planet Labs, Umbra, and HawkEye 360; GPS; miniature CubeSats for education and research; and military/defense satellites.

Loading next visibility...
Identifier
58271, 2023-174R
Orbit
SSO
Country
Flag of USUS
Related business
Manufacturer
Planet
Mission
Operational Commercial Imaging
Bus & Motor
CUBESAT 3U, Unknown motor
Mass
5.7 kg wet, 5.7 kg dry
Launch date (UTC)
2023-11-11 (3 years ago)
Launch vehicle
FALCON 9
Launch site
Air Force Western Test Range (AFWTR)
Object type
Payload
Rocket body
Debris
Shape & HBR
Box + 2 Pan, 1.0 m
Radar Cross Section
0.072 m², Medium (>0.1 m² and < 1m²)

Expand to show TLE details & history
Last TLE update: 2 days ago

TLE from 2 days ago
0 FLOCK 4Q 16
1 58271U 23174R   26171.20384249  .00018553  00000-0  33967-3 0  9992
2 58271  97.3828 259.3814 0007023 148.1428 212.0250 15.49360412146046
Epoch: 2026-06-20T04:53Z
TLE epoch observation values (Epoch: 2026-06-20T04:53:31.991Z)
Latitude
0.00009°
Longitude
-82.42374°
Altitude
425.775 km
Speed
7.654 km/s
True Right ascension
17h 17m 31s
True Declination
0° 00' 00"
Sunlit
Object was in full shadow at epoch
Visualization orbit readout
Latitude
Unknown
Longitude
Unknown
Altitude
Unknown
Speed
Unknown
Apparent Right ascension
Unknown
Apparent Declination
Unknown
Sunlit
N/A
Visualization observer readout
Local Sidereal Time
21:34:42
Azimuth
Unknown
Elevation
Unknown
Doppler factor
Unknown
Orbital elements
Apogee altitude
420.293 km
Perigee altitude
410.751 km
Semi-major axis
6,793.659 km
Eccentricity
0.0007
Inclination
97.3828°
RAAN
259.3814°
Arg. of periapsis
148.1428°
True anomaly
211.98236°
Mean anomaly
212.025°
Eccentric anomaly
212.00367°
Mean motion
3.87603 °/min
Orbital period
92.88 mins
BSTAR
0.00033967
Loading maneuver chart data...
Computing Atmospheric mass density...

Documentation

Showing up to 5 results
|